When you browse on this site, cookies collect data to enhance your experience and personalize the content and advertising you see.
Visit our Privacy Policy to learn more. By continuing to use the site, you agree to this use of cookies and data.
  • In Slovakia
  • List of Countries
  • For 7 days
  • Water Temperature
  • Satellite Maps
  • Weather Map
  • Weather Widgets
  • user-avatar
    Login

    Hourly Weather Armawir

    Today, 9 December, Sunday

    Time Temperature Precipitation Wind Pressure Humidity
    00:00 +7°C° 0.2 mm 1 mps 685 mmHg 74%
    01:00 +6°C° 0.2 mm 1 mps 685 mmHg 74%
    02:00 +6°C° 0.2 mm 1 mps 685 mmHg 75%
    03:00 +6°C° 0 mm 1 mps 684 mmHg 77%
    04:00 +6°C° 0.3 mm 1 mps 684 mmHg 78%
    05:00 +6°C° 0.3 mm 1 mps 684 mmHg 80%
    06:00 +6°C° 0.3 mm 1 mps 685 mmHg 81%
    07:00 +6°C° 0.3 mm 1 mps 685 mmHg 79%
    08:00 +7°C° 0.3 mm 1 mps 685 mmHg 77%
    09:00 +7°C° 0 mm 1 mps 685 mmHg 75%
    10:00 +8°C° 0.3 mm 1 mps 685 mmHg 73%
    11:00 +8°C° 0.3 mm 1 mps 686 mmHg 71%
    12:00 +9°C° 0.3 mm 1 mps 686 mmHg 68%
    13:00 +8°C° 0.1 mm 2 mps 686 mmHg 67%
    14:00 +8°C° 0.1 mm 2 mps 686 mmHg 65%
    15:00 +8°C° 0 mm 2 mps 686 mmHg 64%
    16:00 +7°C° 0 mm 2 mps 686 mmHg 67%
    17:00 +6°C° 0 mm 2 mps 686 mmHg 69%
    18:00 +5°C° 0 mm 2 mps 687 mmHg 72%
    19:00 +5°C° 0 mm 2 mps 687 mmHg 71%
    20:00 +6°C° 0 mm 1 mps 687 mmHg 71%
    21:00 +5°C° 0 mm 1 mps 687 mmHg 71%
    22:00 +5°C° 0 mm 1 mps 688 mmHg 71%
    23:00 +5°C° 0 mm 1 mps 688 mmHg 71%

    Tomorrow, 10 December, Monday

    Time Temperature Precipitation Wind Pressure Humidity
    00:00 +5°C° 0 mm 1 mps 688 mmHg 71%
    01:00 +5°C° 0 mm 1 mps 687 mmHg 71%
    02:00 +4°C° 0 mm 1 mps 687 mmHg 72%
    03:00 +4°C° 0 mm 1 mps 687 mmHg 72%
    04:00 +4°C° 0 mm 1 mps 687 mmHg 73%
    05:00 +4°C° 0 mm 1 mps 687 mmHg 73%
    06:00 +4°C° 0 mm 1 mps 687 mmHg 74%
    07:00 +5°C° 0 mm 1 mps 687 mmHg 71%
    08:00 +4°C° 0 mm 2 mps 687 mmHg 69%
    09:00 +5°C° 0 mm 2 mps 687 mmHg 66%
    10:00 +6°C° 0 mm 2 mps 686 mmHg 64%
    11:00 +7°C° 0 mm 2 mps 686 mmHg 61%
    12:00 +8°C° 0 mm 3 mps 685 mmHg 59%
    13:00 +8°C° 0 mm 3 mps 685 mmHg 59%
    14:00 +8°C° 0 mm 3 mps 685 mmHg 59%
    15:00 +9°C° 0 mm 3 mps 685 mmHg 59%
    16:00 +8°C° 0 mm 3 mps 685 mmHg 63%
    17:00 +7°C° 0 mm 3 mps 686 mmHg 66%
    18:00 +6°C° 0 mm 2 mps 686 mmHg 70%
    19:00 +6°C° 0 mm 2 mps 686 mmHg 71%
    20:00 +5°C° 0 mm 2 mps 686 mmHg 71%
    21:00 +5°C° 0 mm 2 mps 686 mmHg 72%
    22:00 +5°C° 0 mm 2 mps 686 mmHg 73%
    23:00 +5°C° 0 mm 2 mps 686 mmHg 73%

    Day after tomorrow, 11 December, Tuesday

    Time Temperature Precipitation Wind Pressure Humidity
    00:00 +5°C° 0 mm 2 mps 686 mmHg 74%
    01:00 +5°C° 0 mm 2 mps 686 mmHg 74%
    02:00 +5°C° 0 mm 2 mps 686 mmHg 74%
    03:00 +4°C° 0 mm 2 mps 686 mmHg 75%
    04:00 +4°C° 0 mm 2 mps 686 mmHg 74%
    05:00 +4°C° 0 mm 2 mps 686 mmHg 74%
    06:00 +4°C° 0 mm 2 mps 686 mmHg 74%
    07:00 +5°C° 0 mm 2 mps 685 mmHg 72%
    08:00 +6°C° 0 mm 2 mps 685 mmHg 70%
    09:00 +7°C° 0 mm 3 mps 685 mmHg 67%
    10:00 +8°C° 0 mm 3 mps 685 mmHg 64%
    11:00 +8°C° 0 mm 4 mps 684 mmHg 61%
    12:00 +10°C° 0 mm 4 mps 684 mmHg 59%
    13:00 +10°C° 0.1 mm 4 mps 683 mmHg 58%
    14:00 +10°C° 0.1 mm 4 mps 683 mmHg 58%
    15:00 +10°C° 0.1 mm 4 mps 683 mmHg 58%
    16:00 +8°C° 0 mm 4 mps 683 mmHg 61%
    17:00 +8°C° 0 mm 3 mps 683 mmHg 64%
    18:00 +7°C° 0 mm 3 mps 683 mmHg 67%
    19:00 +7°C° 0.1 mm 3 mps 683 mmHg 67%
    20:00 +7°C° 0.1 mm 3 mps 683 mmHg 68%
    21:00 +7°C° 0.1 mm 3 mps 683 mmHg 69%
    22:00 +7°C° 0.8 mm 3 mps 683 mmHg 71%
    23:00 +7°C° 0.8 mm 3 mps 683 mmHg 73%

    12 December, Wednesday

    Time Temperature Precipitation Wind Pressure Humidity
    00:00 +7°C° 0.8 mm 2 mps 683 mmHg 75%
    01:00 +7°C° 0.7 mm 2 mps 683 mmHg 76%
    02:00 +7°C° 0.7 mm 3 mps 683 mmHg 77%
    03:00 +7°C° 0.7 mm 3 mps 684 mmHg 77%
    04:00 +7°C° 1 mm 2 mps 683 mmHg 79%
    05:00 +7°C° 1 mm 2 mps 683 mmHg 80%
    06:00 +7°C° 1 mm 2 mps 683 mmHg 81%
    07:00 +7°C° 1.2 mm 3 mps 683 mmHg 81%
    08:00 +7°C° 1.2 mm 3 mps 683 mmHg 80%
    09:00 +7°C° 1.2 mm 3 mps 683 mmHg 80%
    10:00 +7°C° 1.2 mm 4 mps 683 mmHg 78%
    11:00 +8°C° 1.2 mm 5 mps 682 mmHg 76%
    12:00 +9°C° 1.2 mm 5 mps 682 mmHg 74%
    13:00 +8°C° 1.3 mm 5 mps 681 mmHg 76%
    14:00 +8°C° 1.3 mm 4 mps 681 mmHg 77%
    15:00 +8°C° 1.3 mm 4 mps 680 mmHg 79%
    16:00 +8°C° 0.8 mm 4 mps 680 mmHg 79%
    17:00 +7°C° 0.8 mm 4 mps 680 mmHg 79%
    18:00 +7°C° 0.8 mm 4 mps 680 mmHg 80%
    19:00 +7°C° 1.7 mm 4 mps 680 mmHg 81%
    20:00 +8°C° 1.7 mm 3 mps 680 mmHg 83%
    21:00 +8°C° 1.7 mm 3 mps 680 mmHg 85%
    22:00 +8°C° 1.3 mm 3 mps 680 mmHg 85%
    23:00 +7°C° 1.3 mm 4 mps 681 mmHg 85%

    13 December, Thursday

    Time Temperature Precipitation Wind Pressure Humidity
    00:00 +7°C° 1.3 mm 4 mps 681 mmHg 85%
    01:00 +6°C° 0.4 mm 4 mps 681 mmHg 85%
    02:00 +6°C° 0.4 mm 4 mps 682 mmHg 84%
    03:00 +5°C° 0.4 mm 4 mps 682 mmHg 83%
    04:00 +5°C° 0.1 mm 4 mps 682 mmHg 82%
    05:00 +4°C° 0.1 mm 3 mps 683 mmHg 81%
    06:00 +4°C° 0.1 mm 3 mps 683 mmHg 80%
    07:00 +4°C° 0.1 mm 3 mps 684 mmHg 78%
    08:00 +5°C° 0.1 mm 3 mps 684 mmHg 76%
    09:00 +6°C° 0.1 mm 2 mps 685 mmHg 74%
    10:00 +7°C° 0.1 mm 3 mps 685 mmHg 70%
    11:00 +7°C° 0.1 mm 3 mps 685 mmHg 67%
    12:00 +8°C° 0.1 mm 3 mps 685 mmHg 64%
    13:00 +7°C° 0 mm 3 mps 686 mmHg 64%
    14:00 +7°C° 0 mm 3 mps 686 mmHg 63%
    15:00 +7°C° 0 mm 2 mps 686 mmHg 62%
    16:00 +5°C° 0 mm 2 mps 686 mmHg 63%
    17:00 +4°C° 0 mm 2 mps 687 mmHg 65%
    18:00 +3°C° 0 mm 2 mps 687 mmHg 66%
    19:00 +3°C° 0 mm 2 mps 687 mmHg 66%
    20:00 +2°C° 0 mm 2 mps 688 mmHg 66%
    21:00 +2°C° 0 mm 2 mps 688 mmHg 65%
    22:00 +2°C° 0 mm 2 mps 688 mmHg 66%
    23:00 +2°C° 0 mm 2 mps 688 mmHg 67%

    14 December, Friday

    Time Temperature Precipitation Wind Pressure Humidity
    00:00 +2°C° 0 mm 2 mps 688 mmHg 68%
    01:00 +2°C° 0.1 mm 2 mps 688 mmHg 69%
    02:00 +2°C° 0.1 mm 2 mps 688 mmHg 70%
    03:00 +3°C° 0.1 mm 1 mps 689 mmHg 71%
    04:00 +1°C° 0 mm 2 mps 689 mmHg 72%
    05:00 +1°C° 0 mm 2 mps 689 mmHg 73%
    06:00 -1°C° 0 mm 2 mps 689 mmHg 74%
    07:00 +1°C° 0 mm 2 mps 689 mmHg 72%
    08:00 +1°C° 0 mm 2 mps 690 mmHg 71%
    09:00 +2°C° 0 mm 2 mps 690 mmHg 70%
    10:00 +2°C° 0 mm 2 mps 690 mmHg 68%
    11:00 +3°C° 0 mm 2 mps 690 mmHg 66%
    12:00 +4°C° 0 mm 2 mps 689 mmHg 65%
    13:00 +4°C° 0 mm 2 mps 689 mmHg 65%
    14:00 +4°C° 0 mm 2 mps 689 mmHg 64%
    15:00 +4°C° 0 mm 2 mps 689 mmHg 64%
    16:00 +3°C° 0 mm 2 mps 690 mmHg 66%
    17:00 +2°C° 0 mm 2 mps 690 mmHg 67%
    18:00 +2°C° 0 mm 2 mps 690 mmHg 68%
    19:00 +1°C° 0 mm 2 mps 690 mmHg 68%
    20:00 +1°C° 0 mm 2 mps 691 mmHg 68%
    21:00 +1°C° 0 mm 2 mps 691 mmHg 68%
    22:00 +1°C° 0 mm 2 mps 691 mmHg 68%
    23:00 +1°C° 0 mm 2 mps 690 mmHg 68%
    Show more